Location: Newark
(21.1200°N, 73.4000°E)
Time: 16:57:34
(UTC+00:00)

Explorer 11/Cluster Stage 4 - Pass Details

Date: 27 January 2020
Orbit: 467 x 1259 km, 28.8° (Epoch: 21 February)

Event Time Altitude Azimuth Distance (km) Brightness Sun altitude
Rises 06:12:37 0° 235° (SW) 3,853 10.2 47.1°
Reaches altitude 10° 06:15:16 10° 232° (SW) 2,990 9.8 47.3°
Maximum altitude 06:22:47 62° 153° (SSE) 1,361 9.9 48.0°
Drops below altitude 10° 06:30:55 10° 75° (ENE) 3,229 9.9 48.6°
Sets 06:33:53 0° 72° (ENE) 4,178 10.3 48.8°
